Home   Weather   Nienburg (Weser)   Past weeks

Flag for Germany Past Weather in Nienburg (Weser), Lower Saxony, Germany — Yesterday and Last 2 Weeks

Now
54 °F

Cool.


Feels Like: 52 °F
Forecast: 50 / 57 °F
Wind: 6 mph from Southeast

Location: Wunstorf Airport

Current Time: Oct 1, 2016 at 10:56:58 AM

Latest Report: Oct 1, 2016 at 9:20 AM


Visibility: 3 mi

Pressure: 29.86 "Hg

Humidity: 94%

Dew Point: 52 °F

Location of Nienburg (Weser)Location

Past Weather in Nienburg (Weser) — Graph

°F

Nienburg (Weser) Temperature Yesterday

Maximum temperature yesterday: 64 °F (at 1:20 PM)
Minimum temperature yesterday: 48 °F (at 11:20 PM)
Average temperature yesterday: 59 °F

High & Low Weather Summary for the Past Weeks

 TemperatureHumidityPressure
High77 °F (Sep 25, 4:20 PM)100% (Sep 22, 3:20 AM)30.30 "Hg (Sep 22, 3:20 AM)
Low45 °F (Sep 24, 7:20 AM)39% (Sep 25, 4:20 PM)29.83 "Hg (Sep 29, 8:20 PM)
Average61 °F72%30.09 "Hg
* Reported Sep 16 9:20 AM — Oct 1 9:20 AM, Nienburg (Weser), Weather by CustomWeather, © 2016

Note: Actual official high and low records may vary slightly from our data, if they occured in-between our weather recording intervals... More about our weather records

Advertising

Nienburg (Weser) Weather History for the Previous 24 Hours

Scroll right to see more
 ConditionsComfort  
Time TempWeatherWind HumidityBarometerVisibility
9:20 AM
Sat, Oct 1
54 °FCool.6 mph94%29.86 "Hg3 mi
8:20 AM54 °FCool.5 mph88%29.86 "Hg3 mi
7:20 AM52 °FCool.1 mph88%29.86 "Hg3 mi
6:20 AM52 °FCool.5 mph88%29.86 "Hg3 mi
5:20 AM52 °FCool.3 mph82%29.86 "Hg4 mi
4:20 AM50 °FCool.2 mph88%29.89 "Hg4 mi
3:20 AM50 °FCool.2 mph82%29.89 "Hg4 mi
2:20 AM50 °FCool.3 mph82%29.92 "Hg3 mi
1:20 AM50 °FCool.8 mph82%29.92 "Hg3 mi
12:20 AM48 °FCool.10 mph87%29.92 "Hg3 mi
11:20 PM
Fri, Sep 30
48 °FCool.7 mph87%29.95 "Hg3 mi
10:20 PM52 °FCool.3 mph77%29.95 "Hg4 mi
9:20 PM55 °FCool.2 mph67%29.95 "Hg4 mi
8:20 PM57 °FCool.6 mph63%29.92 "Hg4 mi
7:20 PM59 °FRefreshingly cool.6 mph59%29.92 "Hg4 mi
6:20 PM63 °FMild.8 mph52%29.92 "Hg4 mi
5:20 PM64 °FMild.15 mph49%29.89 "Hg4 mi
4:20 PM64 °FMild.13 mph56%29.92 "Hg4 mi
3:20 PM64 °FMild.10 mph56%29.92 "Hg4 mi
2:20 PM64 °FMild.14 mph56%29.92 "Hg4 mi
1:20 PM64 °FMild.12 mph60%29.92 "Hg4 mi
12:20 PM63 °FMild.15 mph68%29.89 "Hg4 mi
12:03 PM63 °FBroken clouds.15 mph68%29.92 "HgN/A
11:20 AM61 °FBroken clouds.10 mph77%29.92 "HgN/A
10:20 AM59 °FBroken clouds.9 mph82%29.92 "HgN/A
Weather by CustomWeather, © 2016

See weather overviewHow to use our weather pages